Year,Month,Day,Hour,Minute,Value (Times are PST for temperature in C)
2018,05,23,00,00,15.30
2018,05,23,00,01,15.30
2018,05,23,00,02,15.30
2018,05,23,00,03,15.30
2018,05,23,00,04,15.20
2018,05,23,00,05,15.20
2018,05,23,00,06,15.20
2018,05,23,00,07,15.20
2018,05,23,00,08,15.20
2018,05,23,00,09,15.10
2018,05,23,00,10,15.10
2018,05,23,00,11,15.10
2018,05,23,00,12,15.10
2018,05,23,00,13,15.00
2018,05,23,00,14,15.00
2018,05,23,00,15,14.90
2018,05,23,00,16,14.90
2018,05,23,00,17,14.90
2018,05,23,00,18,14.90
2018,05,23,00,19,14.80
2018,05,23,00,20,14.80
2018,05,23,00,21,14.80
2018,05,23,00,22,14.70
2018,05,23,00,23,14.70
2018,05,23,00,24,14.70
2018,05,23,00,25,14.70
2018,05,23,00,26,14.60
2018,05,23,00,27,14.60
2018,05,23,00,28,14.60
2018,05,23,00,29,14.60
2018,05,23,00,30,14.60
2018,05,23,00,31,14.60
2018,05,23,00,32,14.60
2018,05,23,00,33,14.50
2018,05,23,00,34,14.50
2018,05,23,00,35,14.50
2018,05,23,00,36,14.50
2018,05,23,00,37,14.50
2018,05,23,00,38,14.40
2018,05,23,00,39,14.40
2018,05,23,00,40,14.40
2018,05,23,00,41,14.40
2018,05,23,00,42,14.40
2018,05,23,00,43,14.40
2018,05,23,00,44,14.40
2018,05,23,00,45,14.40
2018,05,23,00,46,14.40
2018,05,23,00,47,14.40
2018,05,23,00,48,14.40
2018,05,23,00,49,14.40
2018,05,23,00,50,14.40
2018,05,23,00,51,14.30
2018,05,23,00,52,14.30
2018,05,23,00,53,14.30
2018,05,23,00,54,14.30
2018,05,23,00,55,14.30
2018,05,23,00,56,14.30
2018,05,23,00,57,14.30
2018,05,23,00,58,14.30
2018,05,23,00,59,14.20
2018,05,23,01,00,14.20
2018,05,23,01,01,14.20
2018,05,23,01,02,14.20
2018,05,23,01,03,14.20
2018,05,23,01,04,14.20
2018,05,23,01,05,14.10
2018,05,23,01,06,14.10
2018,05,23,01,07,14.10
2018,05,23,01,08,14.10
2018,05,23,01,09,14.10
2018,05,23,01,10,14.00
2018,05,23,01,11,14.00
2018,05,23,01,12,13.90
2018,05,23,01,13,13.90
2018,05,23,01,14,13.90
2018,05,23,01,15,13.90
2018,05,23,01,16,13.80
2018,05,23,01,17,13.80
2018,05,23,01,18,13.80
2018,05,23,01,19,13.80
2018,05,23,01,20,13.80
2018,05,23,01,21,13.80
2018,05,23,01,22,13.70
2018,05,23,01,23,13.70
2018,05,23,01,24,13.70
2018,05,23,01,25,13.70
2018,05,23,01,26,13.70
2018,05,23,01,27,13.70
2018,05,23,01,28,13.70
2018,05,23,01,29,13.70
2018,05,23,01,30,13.70
2018,05,23,01,31,13.70
2018,05,23,01,32,13.70
2018,05,23,01,33,13.60
2018,05,23,01,34,13.60
2018,05,23,01,35,13.60
2018,05,23,01,36,13.60
2018,05,23,01,37,13.60
2018,05,23,01,38,13.60
2018,05,23,01,39,13.60
2018,05,23,01,40,13.60
2018,05,23,01,41,13.60
2018,05,23,01,42,13.60
2018,05,23,01,43,13.50
2018,05,23,01,44,13.50
2018,05,23,01,45,13.50
2018,05,23,01,46,13.50
2018,05,23,01,47,13.50
2018,05,23,01,48,13.50
2018,05,23,01,49,13.50
2018,05,23,01,50,13.50
2018,05,23,01,51,13.50
2018,05,23,01,52,13.50
2018,05,23,01,53,13.50
2018,05,23,01,54,13.50
2018,05,23,01,55,13.50
2018,05,23,01,56,13.50
2018,05,23,01,57,13.50
2018,05,23,01,58,13.40
2018,05,23,01,59,13.50
2018,05,23,02,00,13.40
2018,05,23,02,01,13.40
2018,05,23,02,02,13.40
2018,05,23,02,03,13.40
2018,05,23,02,04,13.40
2018,05,23,02,05,13.40
2018,05,23,02,06,13.40
2018,05,23,02,07,13.40
2018,05,23,02,08,13.30
2018,05,23,02,09,13.30
2018,05,23,02,10,13.30
2018,05,23,02,11,13.30
2018,05,23,02,12,13.30
2018,05,23,02,13,13.30
2018,05,23,02,14,13.30
2018,05,23,02,15,13.20
2018,05,23,02,16,13.20
2018,05,23,02,17,13.20
2018,05,23,02,18,13.20
2018,05,23,02,19,13.10
2018,05,23,02,20,13.10
2018,05,23,02,21,13.10
2018,05,23,02,22,13.10
2018,05,23,02,23,13.10
2018,05,23,02,24,13.00
2018,05,23,02,25,13.00
2018,05,23,02,26,13.00
2018,05,23,02,27,12.90
2018,05,23,02,28,12.90
2018,05,23,02,29,12.90
2018,05,23,02,30,12.90
2018,05,23,02,31,12.90
2018,05,23,02,32,12.90
2018,05,23,02,33,12.90
2018,05,23,02,34,12.90
2018,05,23,02,35,12.90
2018,05,23,02,36,12.90
2018,05,23,02,37,12.90
2018,05,23,02,38,12.90
2018,05,23,02,39,12.90
2018,05,23,02,40,12.90
2018,05,23,02,41,12.90
2018,05,23,02,42,12.90
2018,05,23,02,43,12.90
2018,05,23,02,44,12.90
2018,05,23,02,45,12.90
2018,05,23,02,46,13.00
2018,05,23,02,47,13.00
2018,05,23,02,48,13.00
2018,05,23,02,49,13.00
2018,05,23,02,50,13.10
2018,05,23,02,51,13.10
2018,05,23,02,52,13.10
2018,05,23,02,53,13.10
2018,05,23,02,54,13.10
2018,05,23,02,55,13.10
2018,05,23,02,56,13.10
2018,05,23,02,57,13.10
2018,05,23,02,58,13.10
2018,05,23,02,59,13.20
2018,05,23,03,00,13.20
2018,05,23,03,01,13.20
2018,05,23,03,02,13.20
2018,05,23,03,03,13.20
2018,05,23,03,04,13.20
2018,05,23,03,05,13.20
2018,05,23,03,06,13.20
2018,05,23,03,07,13.20
2018,05,23,03,08,13.20
2018,05,23,03,09,13.20
2018,05,23,03,10,13.20
2018,05,23,03,11,13.20
2018,05,23,03,12,13.20
2018,05,23,03,13,13.20
2018,05,23,03,14,13.20
2018,05,23,03,15,13.20
2018,05,23,03,16,13.20
2018,05,23,03,17,13.20
2018,05,23,03,18,13.20
2018,05,23,03,19,13.20
2018,05,23,03,20,13.20
2018,05,23,03,21,13.20
2018,05,23,03,22,13.20
2018,05,23,03,23,13.20
2018,05,23,03,24,13.20
2018,05,23,03,25,13.20
2018,05,23,03,26,13.20
2018,05,23,03,27,13.10
2018,05,23,03,28,13.10
2018,05,23,03,29,13.10
2018,05,23,03,30,13.10
2018,05,23,03,31,13.10
2018,05,23,03,32,13.10
2018,05,23,03,33,13.10
2018,05,23,03,34,13.10
2018,05,23,03,35,13.10
2018,05,23,03,36,13.20
2018,05,23,03,37,13.20
2018,05,23,03,38,13.30
2018,05,23,03,39,13.40
2018,05,23,03,40,13.50
2018,05,23,03,41,13.50
2018,05,23,03,42,13.60
2018,05,23,03,43,13.60
2018,05,23,03,44,13.70
2018,05,23,03,45,13.70
2018,05,23,03,46,13.80
2018,05,23,03,47,13.80
2018,05,23,03,48,13.80
2018,05,23,03,49,13.80
2018,05,23,03,50,13.80
2018,05,23,03,51,13.80
2018,05,23,03,52,13.80
2018,05,23,03,53,13.80
2018,05,23,03,54,13.80
2018,05,23,03,55,13.80
2018,05,23,03,56,13.80
2018,05,23,03,57,13.80
2018,05,23,03,58,13.80
2018,05,23,03,59,13.80
2018,05,23,04,00,13.80
2018,05,23,04,01,13.80
2018,05,23,04,02,13.80
2018,05,23,04,03,13.70
2018,05,23,04,04,13.70
2018,05,23,04,05,13.60
2018,05,23,04,06,13.50
2018,05,23,04,07,13.50
2018,05,23,04,08,13.40
2018,05,23,04,09,13.40
2018,05,23,04,10,13.30
2018,05,23,04,11,13.30
2018,05,23,04,12,13.20
2018,05,23,04,13,13.10
2018,05,23,04,14,13.10
2018,05,23,04,15,13.00
2018,05,23,04,16,13.00
2018,05,23,04,17,12.90
2018,05,23,04,18,12.90
2018,05,23,04,19,12.80
2018,05,23,04,20,12.80
2018,05,23,04,21,12.70
2018,05,23,04,22,12.60
2018,05,23,04,23,12.60
2018,05,23,04,24,12.50
2018,05,23,04,25,12.50
2018,05,23,04,26,12.40
2018,05,23,04,27,12.30
2018,05,23,04,28,12.30
2018,05,23,04,29,12.30
2018,05,23,04,30,12.20
2018,05,23,04,31,12.20
2018,05,23,04,32,12.20
2018,05,23,04,33,12.20
2018,05,23,04,34,12.10
2018,05,23,04,35,12.10
2018,05,23,04,36,12.10
2018,05,23,04,37,12.10
2018,05,23,04,38,12.10
2018,05,23,04,39,12.10
2018,05,23,04,40,12.10
2018,05,23,04,41,12.10
2018,05,23,04,42,12.10
2018,05,23,04,43,12.10
2018,05,23,04,44,12.10
2018,05,23,04,45,12.10
2018,05,23,04,46,12.00
2018,05,23,04,47,12.00
2018,05,23,04,48,12.00
2018,05,23,04,49,11.90
2018,05,23,04,50,11.90
2018,05,23,04,51,11.90
2018,05,23,04,52,11.90
2018,05,23,04,53,11.80
2018,05,23,04,54,11.80
2018,05,23,04,55,11.80
2018,05,23,04,56,11.80
2018,05,23,04,57,11.80
2018,05,23,04,58,11.80
2018,05,23,04,59,11.80
2018,05,23,05,00,11.80
2018,05,23,05,01,11.80
2018,05,23,05,02,11.80
2018,05,23,05,03,11.90
2018,05,23,05,04,11.90
2018,05,23,05,05,11.90
2018,05,23,05,06,11.90
2018,05,23,05,07,11.90
2018,05,23,05,08,11.90
2018,05,23,05,09,11.90
2018,05,23,05,10,11.90
2018,05,23,05,11,11.90
2018,05,23,05,12,11.90
2018,05,23,05,13,11.90
2018,05,23,05,14,11.80
2018,05,23,05,15,11.80
2018,05,23,05,16,11.80
2018,05,23,05,17,11.80
2018,05,23,05,18,11.80
2018,05,23,05,19,11.80
2018,05,23,05,20,11.80
2018,05,23,05,21,11.80
2018,05,23,05,22,11.90
2018,05,23,05,23,11.90
2018,05,23,05,24,11.90
2018,05,23,05,25,11.90
2018,05,23,05,26,11.90
2018,05,23,05,27,11.90
2018,05,23,05,28,11.90
2018,05,23,05,29,11.80
2018,05,23,05,30,11.80
2018,05,23,05,31,11.80
2018,05,23,05,32,11.80
2018,05,23,05,33,11.80
2018,05,23,05,34,11.80
2018,05,23,05,35,11.80
2018,05,23,05,36,11.70
2018,05,23,05,37,11.70
2018,05,23,05,38,11.70
2018,05,23,05,39,11.70
2018,05,23,05,40,11.70
2018,05,23,05,41,11.70
2018,05,23,05,42,11.70
2018,05,23,05,43,11.70
2018,05,23,05,44,11.60
2018,05,23,05,45,11.60
2018,05,23,05,46,11.60
2018,05,23,05,47,11.60
2018,05,23,05,48,11.60
2018,05,23,05,49,11.60
2018,05,23,05,50,11.60
2018,05,23,05,51,11.70
2018,05,23,05,52,11.70
2018,05,23,05,53,11.70
2018,05,23,05,54,11.70
2018,05,23,05,55,11.70
2018,05,23,05,56,11.70
2018,05,23,05,57,11.70
2018,05,23,05,58,11.70
2018,05,23,05,59,11.80
2018,05,23,06,00,11.80
2018,05,23,06,01,11.80
2018,05,23,06,02,11.80
2018,05,23,06,03,11.90
2018,05,23,06,04,11.90
2018,05,23,06,05,12.00
2018,05,23,06,06,12.00
2018,05,23,06,07,12.00
2018,05,23,06,08,12.10
2018,05,23,06,09,12.10
2018,05,23,06,10,12.10
2018,05,23,06,11,12.10
2018,05,23,06,12,12.20
2018,05,23,06,13,12.20
2018,05,23,06,14,12.20
2018,05,23,06,15,12.20
2018,05,23,06,16,12.30
2018,05,23,06,17,12.30
2018,05,23,06,18,12.30
2018,05,23,06,19,12.30
2018,05,23,06,20,12.40
2018,05,23,06,21,12.40
2018,05,23,06,22,12.40
2018,05,23,06,23,12.50
2018,05,23,06,24,12.50
2018,05,23,06,25,12.60
2018,05,23,06,26,12.60
2018,05,23,06,27,12.60
2018,05,23,06,28,12.70
2018,05,23,06,29,12.70
2018,05,23,06,30,12.80
2018,05,23,06,31,12.80
2018,05,23,06,32,12.80
2018,05,23,06,33,12.90
2018,05,23,06,34,13.00
2018,05,23,06,35,13.00
2018,05,23,06,36,13.10
2018,05,23,06,37,13.10
2018,05,23,06,38,13.20
2018,05,23,06,39,13.20
2018,05,23,06,40,13.30
2018,05,23,06,41,13.30
2018,05,23,06,42,13.40
2018,05,23,06,43,13.50
2018,05,23,06,44,13.60
2018,05,23,06,45,13.70
2018,05,23,06,46,13.80
2018,05,23,06,47,13.80
2018,05,23,06,48,13.90
2018,05,23,06,49,13.90
2018,05,23,06,50,13.90
2018,05,23,06,51,14.00
2018,05,23,06,52,14.00
2018,05,23,06,53,14.10
2018,05,23,06,54,14.10
2018,05,23,06,55,14.20
2018,05,23,06,56,14.20
2018,05,23,06,57,14.20
2018,05,23,06,58,14.30
2018,05,23,06,59,14.30
2018,05,23,07,00,14.30
2018,05,23,07,01,14.40
2018,05,23,07,02,14.40
2018,05,23,07,03,14.50
2018,05,23,07,04,14.50
2018,05,23,07,05,14.60
2018,05,23,07,06,14.70
2018,05,23,07,07,14.70
2018,05,23,07,08,14.80
2018,05,23,07,09,14.80
2018,05,23,07,10,14.90
2018,05,23,07,11,14.90
2018,05,23,07,12,15.00
2018,05,23,07,13,15.10
2018,05,23,07,14,15.10
2018,05,23,07,15,15.20
2018,05,23,07,16,15.20
2018,05,23,07,17,15.30
2018,05,23,07,18,15.30
2018,05,23,07,19,15.40
2018,05,23,07,20,15.50
2018,05,23,07,21,15.60
2018,05,23,07,22,15.70
2018,05,23,07,23,15.80
2018,05,23,07,24,15.90
2018,05,23,07,25,16.10
2018,05,23,07,26,16.30
2018,05,23,07,27,16.50
2018,05,23,07,28,16.70
2018,05,23,07,29,16.90
2018,05,23,07,30,17.10
2018,05,23,07,31,17.20
2018,05,23,07,32,17.30
2018,05,23,07,33,17.40
2018,05,23,07,34,17.50
2018,05,23,07,35,17.50
2018,05,23,07,36,17.60
2018,05,23,07,37,17.60
2018,05,23,07,38,17.60
2018,05,23,07,39,17.60
2018,05,23,07,40,17.60
2018,05,23,07,41,17.60
2018,05,23,07,42,17.60
2018,05,23,07,43,17.60
2018,05,23,07,44,17.60
2018,05,23,07,45,17.50
2018,05,23,07,46,17.50
2018,05,23,07,47,17.50
2018,05,23,07,48,17.50
2018,05,23,07,49,17.60
2018,05,23,07,50,17.60
2018,05,23,07,51,17.70
2018,05,23,07,52,17.80
2018,05,23,07,53,17.90
2018,05,23,07,54,18.00
2018,05,23,07,55,18.10
2018,05,23,07,56,18.10
2018,05,23,07,57,18.20
2018,05,23,07,58,18.20
2018,05,23,07,59,18.20
2018,05,23,08,00,18.10
2018,05,23,08,01,18.10
2018,05,23,08,02,17.90
2018,05,23,08,03,17.80
2018,05,23,08,04,17.70
2018,05,23,08,05,17.70
2018,05,23,08,06,17.70
2018,05,23,08,07,17.70
2018,05,23,08,08,17.60
2018,05,23,08,09,17.50
2018,05,23,08,10,17.50
2018,05,23,08,11,17.50
2018,05,23,08,12,17.50
2018,05,23,08,13,17.50
2018,05,23,08,14,17.60
2018,05,23,08,15,17.60
2018,05,23,08,16,17.60
2018,05,23,08,17,17.60
2018,05,23,08,18,17.60
2018,05,23,08,19,17.60
2018,05,23,08,20,17.60
2018,05,23,08,21,17.60
2018,05,23,08,22,17.60
2018,05,23,08,23,17.60
2018,05,23,08,24,17.70
2018,05,23,08,25,17.70
2018,05,23,08,26,17.70
2018,05,23,08,27,17.70
2018,05,23,08,28,17.70
2018,05,23,08,29,17.70
2018,05,23,08,30,17.80
2018,05,23,08,31,17.80
2018,05,23,08,32,17.90
2018,05,23,08,33,18.00
2018,05,23,08,34,18.10
2018,05,23,08,35,18.20
2018,05,23,08,36,18.20
2018,05,23,08,37,18.30
2018,05,23,08,38,18.30
2018,05,23,08,39,18.30
2018,05,23,08,40,18.40
2018,05,23,08,41,18.40
2018,05,23,08,42,18.40
2018,05,23,08,43,18.40
2018,05,23,08,44,18.40
2018,05,23,08,45,18.40
2018,05,23,08,46,18.50
2018,05,23,08,47,18.50
2018,05,23,08,48,18.60
2018,05,23,08,49,18.60
2018,05,23,08,50,18.60
2018,05,23,08,51,18.60
2018,05,23,08,52,18.60
2018,05,23,08,53,18.60
2018,05,23,08,54,18.60
2018,05,23,08,55,18.60
2018,05,23,08,56,18.60
2018,05,23,08,57,18.60
2018,05,23,08,58,18.70
2018,05,23,08,59,18.80
2018,05,23,09,00,18.80
2018,05,23,09,01,18.90
2018,05,23,09,02,18.90
2018,05,23,09,03,19.00
2018,05,23,09,04,19.00
2018,05,23,09,05,19.10
2018,05,23,09,06,19.10
2018,05,23,09,07,19.10
2018,05,23,09,08,19.10
2018,05,23,09,09,19.10
2018,05,23,09,10,19.10
2018,05,23,09,11,19.10
2018,05,23,09,12,19.20
2018,05,23,09,13,19.20
2018,05,23,09,14,19.20
2018,05,23,09,15,19.20
2018,05,23,09,16,19.20
2018,05,23,09,17,19.20
2018,05,23,09,18,19.20
2018,05,23,09,19,19.20
2018,05,23,09,20,19.20
2018,05,23,09,21,19.30
2018,05,23,09,22,19.30
2018,05,23,09,23,19.30
2018,05,23,09,24,19.30
2018,05,23,09,25,19.20
2018,05,23,09,26,19.20
2018,05,23,09,27,19.20
2018,05,23,09,28,19.30
2018,05,23,09,29,19.30
2018,05,23,09,30,19.30
2018,05,23,09,31,19.30
2018,05,23,09,32,19.30
2018,05,23,09,33,19.40
2018,05,23,09,34,19.40
2018,05,23,09,35,19.50
2018,05,23,09,36,19.50
2018,05,23,09,37,19.50
2018,05,23,09,38,19.50
2018,05,23,09,39,19.50
2018,05,23,09,40,19.50
2018,05,23,09,41,19.50
2018,05,23,09,42,19.50
2018,05,23,09,43,19.50
2018,05,23,09,44,19.50
2018,05,23,09,45,19.40
2018,05,23,09,46,19.40
2018,05,23,09,47,19.40
2018,05,23,09,48,19.50
2018,05,23,09,49,19.60
2018,05,23,09,50,19.60
2018,05,23,09,51,19.70
2018,05,23,09,52,19.70
2018,05,23,09,53,19.70
2018,05,23,09,54,19.70
2018,05,23,09,55,19.60
2018,05,23,09,56,19.60
2018,05,23,09,57,19.50
2018,05,23,09,58,19.50
2018,05,23,09,59,19.60
2018,05,23,10,00,19.70
2018,05,23,10,01,19.70
2018,05,23,10,02,19.80
2018,05,23,10,03,19.80
2018,05,23,10,04,19.80
2018,05,23,10,05,19.80
2018,05,23,10,06,19.80
2018,05,23,10,07,19.80
2018,05,23,10,08,19.80
2018,05,23,10,09,19.70
2018,05,23,10,10,19.70
2018,05,23,10,11,19.70
2018,05,23,10,12,19.80
2018,05,23,10,13,19.80
2018,05,23,10,14,19.80
2018,05,23,10,15,19.80
2018,05,23,10,16,19.90
2018,05,23,10,17,20.00
2018,05,23,10,18,20.10
2018,05,23,10,19,20.10
2018,05,23,10,20,20.10
2018,05,23,10,21,20.10
2018,05,23,10,22,20.00
2018,05,23,10,23,20.00
2018,05,23,10,24,19.90
2018,05,23,10,25,19.80
2018,05,23,10,26,19.80
2018,05,23,10,27,19.80
2018,05,23,10,28,19.70
2018,05,23,10,29,19.80
2018,05,23,10,30,19.90
2018,05,23,10,31,20.00
2018,05,23,10,32,20.10
2018,05,23,10,33,20.10
2018,05,23,10,34,20.20
2018,05,23,10,35,20.20
2018,05,23,10,36,20.10
2018,05,23,10,37,20.10
2018,05,23,10,38,20.00
2018,05,23,10,39,19.90
2018,05,23,10,40,19.90
2018,05,23,10,41,19.90
2018,05,23,10,42,19.90
2018,05,23,10,43,19.90
2018,05,23,10,44,19.90
2018,05,23,10,45,19.90
2018,05,23,10,46,20.00
2018,05,23,10,47,20.10
2018,05,23,10,48,20.10
2018,05,23,10,49,20.10
2018,05,23,10,50,20.00
2018,05,23,10,51,19.90
2018,05,23,10,52,19.80
2018,05,23,10,53,19.70
2018,05,23,10,54,19.60
2018,05,23,10,55,19.60
2018,05,23,10,56,19.60
2018,05,23,10,57,19.60
2018,05,23,10,58,19.60
2018,05,23,10,59,19.70
2018,05,23,11,00,19.70
2018,05,23,11,01,19.90
2018,05,23,11,02,20.10
2018,05,23,11,03,20.20
2018,05,23,11,04,20.30
2018,05,23,11,05,20.20
2018,05,23,11,06,20.20
2018,05,23,11,07,20.20
2018,05,23,11,08,20.10
2018,05,23,11,09,20.20
2018,05,23,11,10,20.30
2018,05,23,11,11,20.40
2018,05,23,11,12,20.40
2018,05,23,11,13,20.50
2018,05,23,11,14,20.60
2018,05,23,11,15,20.70
2018,05,23,11,16,20.60
2018,05,23,11,17,20.60
2018,05,23,11,18,20.50
2018,05,23,11,19,20.50
2018,05,23,11,20,20.40
2018,05,23,11,21,20.40
2018,05,23,11,22,20.40
2018,05,23,11,23,20.40
2018,05,23,11,24,20.40
2018,05,23,11,25,20.50
2018,05,23,11,26,20.60
2018,05,23,11,27,20.80
2018,05,23,11,28,20.90
2018,05,23,11,29,20.90
2018,05,23,11,30,21.00
2018,05,23,11,31,21.00
2018,05,23,11,32,21.10
2018,05,23,11,33,21.20
2018,05,23,11,34,21.20
2018,05,23,11,35,21.20
2018,05,23,11,36,21.20
2018,05,23,11,37,21.20
2018,05,23,11,38,21.20
2018,05,23,11,39,21.20
2018,05,23,11,40,21.30
2018,05,23,11,41,21.20
2018,05,23,11,42,21.30
2018,05,23,11,43,21.30
2018,05,23,11,44,21.40
2018,05,23,11,45,21.40
2018,05,23,11,46,21.50
2018,05,23,11,47,21.50
2018,05,23,11,48,21.50
2018,05,23,11,49,21.50
2018,05,23,11,50,21.50
2018,05,23,11,51,21.50
2018,05,23,11,52,21.40
2018,05,23,11,53,21.40
2018,05,23,11,54,21.20
2018,05,23,11,55,21.20
2018,05,23,11,56,21.10
2018,05,23,11,57,21.00
2018,05,23,11,58,21.00
2018,05,23,11,59,20.90
2018,05,23,12,00,20.80
2018,05,23,12,01,20.90
2018,05,23,12,02,20.90
2018,05,23,12,03,21.00
2018,05,23,12,04,21.00
2018,05,23,12,05,21.10
2018,05,23,12,06,21.30
2018,05,23,12,07,21.40
2018,05,23,12,08,21.40
2018,05,23,12,09,21.30
2018,05,23,12,10,21.30
2018,05,23,12,11,21.40
2018,05,23,12,12,21.50
2018,05,23,12,13,21.60
2018,05,23,12,14,21.60
2018,05,23,12,15,21.70
2018,05,23,12,16,21.80
2018,05,23,12,17,21.80
2018,05,23,12,18,21.90
2018,05,23,12,19,22.00
2018,05,23,12,20,22.10
2018,05,23,12,21,22.10
2018,05,23,12,22,22.10
2018,05,23,12,23,22.20
2018,05,23,12,24,22.30
2018,05,23,12,25,22.20
2018,05,23,12,26,22.20
2018,05,23,12,27,22.20
2018,05,23,12,28,22.10
2018,05,23,12,29,22.10
2018,05,23,12,30,22.00
2018,05,23,12,31,22.00
2018,05,23,12,32,22.00
2018,05,23,12,33,22.20
2018,05,23,12,34,22.30
2018,05,23,12,35,22.40
2018,05,23,12,36,22.40
2018,05,23,12,37,22.30
2018,05,23,12,38,22.20
2018,05,23,12,39,22.10
2018,05,23,12,40,22.10
2018,05,23,12,41,22.20
2018,05,23,12,42,22.20
2018,05,23,12,43,22.20
2018,05,23,12,44,22.20
2018,05,23,12,45,22.20
2018,05,23,12,46,22.10
2018,05,23,12,47,22.10
2018,05,23,12,48,22.20
2018,05,23,12,49,22.20
2018,05,23,12,50,22.10
2018,05,23,12,51,22.20
2018,05,23,12,52,22.10
2018,05,23,12,53,21.90
2018,05,23,12,54,21.90
2018,05,23,12,55,21.80
2018,05,23,12,56,21.70
2018,05,23,12,57,21.70
2018,05,23,12,58,21.80
2018,05,23,12,59,21.80
2018,05,23,13,00,21.80
2018,05,23,13,01,21.90
2018,05,23,13,02,21.90
2018,05,23,13,03,21.90
2018,05,23,13,04,21.90
2018,05,23,13,05,21.80
2018,05,23,13,06,21.80
2018,05,23,13,07,21.80
2018,05,23,13,08,21.70
2018,05,23,13,09,21.70
2018,05,23,13,10,21.70
2018,05,23,13,11,21.70
2018,05,23,13,12,21.70
2018,05,23,13,13,21.70
2018,05,23,13,14,21.70
2018,05,23,13,15,21.70
2018,05,23,13,16,21.60
2018,05,23,13,17,21.60
2018,05,23,13,18,21.60
2018,05,23,13,19,21.70
2018,05,23,13,20,21.70
2018,05,23,13,21,21.80
2018,05,23,13,22,21.80
2018,05,23,13,23,21.80
2018,05,23,13,24,21.80
2018,05,23,13,25,21.80
2018,05,23,13,26,21.90
2018,05,23,13,27,21.90
2018,05,23,13,28,21.90
2018,05,23,13,29,21.80
2018,05,23,13,30,21.80
2018,05,23,13,31,21.80
2018,05,23,13,32,21.70
2018,05,23,13,33,21.70
2018,05,23,13,34,21.80
2018,05,23,13,35,21.90
2018,05,23,13,36,21.90
2018,05,23,13,37,22.00
2018,05,23,13,38,22.10
2018,05,23,13,39,22.20
2018,05,23,13,40,22.30
2018,05,23,13,41,22.30
2018,05,23,13,42,22.30
2018,05,23,13,43,22.40
2018,05,23,13,44,22.60
2018,05,23,13,45,22.70
2018,05,23,13,46,22.70
2018,05,23,13,47,22.70
2018,05,23,13,48,22.70
2018,05,23,13,49,22.60
2018,05,23,13,50,22.60
2018,05,23,13,51,22.60
2018,05,23,13,52,22.50
2018,05,23,13,53,22.50
2018,05,23,13,54,22.50
2018,05,23,13,55,22.40
2018,05,23,13,56,22.30
2018,05,23,13,57,22.20
2018,05,23,13,58,22.10
2018,05,23,13,59,22.10
2018,05,23,14,00,22.10
2018,05,23,14,01,22.20
2018,05,23,14,02,22.40
2018,05,23,14,03,22.50
2018,05,23,14,04,22.70
2018,05,23,14,05,22.80
2018,05,23,14,06,22.80
2018,05,23,14,07,22.80
2018,05,23,14,08,22.90
2018,05,23,14,09,23.00
2018,05,23,14,10,23.00
2018,05,23,14,11,23.10
2018,05,23,14,12,23.20
2018,05,23,14,13,23.40
2018,05,23,14,14,23.50
2018,05,23,14,15,23.60
2018,05,23,14,16,23.70
2018,05,23,14,17,23.70
2018,05,23,14,18,23.70
2018,05,23,14,19,23.80
2018,05,23,14,20,23.80
2018,05,23,14,21,23.80
2018,05,23,14,22,23.80
2018,05,23,14,23,23.80
2018,05,23,14,24,23.80
2018,05,23,14,25,23.90
2018,05,23,14,26,23.90
2018,05,23,14,27,23.90
2018,05,23,14,28,24.00
2018,05,23,14,29,24.10
2018,05,23,14,30,24.00
2018,05,23,14,31,23.90
2018,05,23,14,32,23.80
2018,05,23,14,33,23.80
2018,05,23,14,34,23.90
2018,05,23,14,35,24.00
2018,05,23,14,36,24.20
2018,05,23,14,37,24.30
2018,05,23,14,38,24.40
2018,05,23,14,39,24.50
2018,05,23,14,40,24.60
2018,05,23,14,41,24.60
2018,05,23,14,42,24.60
2018,05,23,14,43,24.60
2018,05,23,14,44,24.50
2018,05,23,14,45,24.50
2018,05,23,14,46,24.30
2018,05,23,14,47,24.30
2018,05,23,14,48,24.20
2018,05,23,14,49,24.20
2018,05,23,14,50,24.20
2018,05,23,14,51,24.20
2018,05,23,14,52,24.30
2018,05,23,14,53,24.40
2018,05,23,14,54,24.60
2018,05,23,14,55,24.60
2018,05,23,14,56,24.70
2018,05,23,14,57,24.70
2018,05,23,14,58,24.70
2018,05,23,14,59,24.80
2018,05,23,15,00,24.80
2018,05,23,15,01,24.80
2018,05,23,15,02,24.80
2018,05,23,15,03,24.80
2018,05,23,15,04,24.80
2018,05,23,15,05,24.80
2018,05,23,15,06,24.80
2018,05,23,15,07,24.80
2018,05,23,15,08,24.80
2018,05,23,15,09,24.80
2018,05,23,15,10,24.70
2018,05,23,15,11,24.70
2018,05,23,15,12,24.60
2018,05,23,15,13,24.60
2018,05,23,15,14,24.60
2018,05,23,15,15,24.60
2018,05,23,15,16,24.60
2018,05,23,15,17,24.70
2018,05,23,15,18,24.70
2018,05,23,15,19,24.80
2018,05,23,15,20,24.80
2018,05,23,15,21,24.70
2018,05,23,15,22,24.70
2018,05,23,15,23,24.70
2018,05,23,15,24,24.70
2018,05,23,15,25,24.70
2018,05,23,15,26,24.70
2018,05,23,15,27,24.70
2018,05,23,15,28,24.70
2018,05,23,15,29,24.70
2018,05,23,15,30,24.80
2018,05,23,15,31,24.90
2018,05,23,15,32,24.90
2018,05,23,15,33,24.90
2018,05,23,15,34,24.90
2018,05,23,15,35,24.90
2018,05,23,15,36,24.90
2018,05,23,15,37,24.80
2018,05,23,15,38,24.70
2018,05,23,15,39,24.70
2018,05,23,15,40,24.70
2018,05,23,15,41,24.70
2018,05,23,15,42,24.70
2018,05,23,15,43,24.70
2018,05,23,15,44,24.70
2018,05,23,15,45,24.70
2018,05,23,15,46,24.80
2018,05,23,15,47,24.90
2018,05,23,15,48,24.90
2018,05,23,15,49,25.00
2018,05,23,15,50,25.00
2018,05,23,15,51,25.00
2018,05,23,15,52,25.00
2018,05,23,15,53,25.00
2018,05,23,15,54,25.10
2018,05,23,15,55,25.20
2018,05,23,15,56,25.10
2018,05,23,15,57,25.10
2018,05,23,15,58,25.10
2018,05,23,15,59,25.00
2018,05,23,16,00,25.00
2018,05,23,16,01,25.00
2018,05,23,16,02,24.90
2018,05,23,16,03,24.90
2018,05,23,16,04,24.80
2018,05,23,16,05,24.80
2018,05,23,16,06,24.80
2018,05,23,16,07,24.70
2018,05,23,16,08,24.70
2018,05,23,16,09,24.60
2018,05,23,16,10,24.60
2018,05,23,16,11,24.70
2018,05,23,16,12,24.80
2018,05,23,16,13,25.00
2018,05,23,16,14,25.10
2018,05,23,16,15,25.10
2018,05,23,16,16,25.10
2018,05,23,16,17,25.10
2018,05,23,16,18,25.10
2018,05,23,16,19,25.10
2018,05,23,16,20,25.20
2018,05,23,16,21,25.20
2018,05,23,16,22,25.20
2018,05,23,16,23,25.20
2018,05,23,16,24,25.20
2018,05,23,16,25,25.10
2018,05,23,16,26,25.00
2018,05,23,16,27,25.00
2018,05,23,16,28,24.90
2018,05,23,16,29,24.90
2018,05,23,16,30,24.90
2018,05,23,16,31,24.90
2018,05,23,16,32,24.90
2018,05,23,16,33,24.80
2018,05,23,16,34,24.70
2018,05,23,16,35,24.50
2018,05,23,16,36,24.40
2018,05,23,16,37,24.20
2018,05,23,16,38,24.10
2018,05,23,16,39,24.10
2018,05,23,16,40,24.10
2018,05,23,16,41,24.10
2018,05,23,16,42,24.20
2018,05,23,16,43,24.30
2018,05,23,16,44,24.40
2018,05,23,16,45,24.50
2018,05,23,16,46,24.70
2018,05,23,16,47,24.80
2018,05,23,16,48,24.90
2018,05,23,16,49,25.00
2018,05,23,16,50,25.20
2018,05,23,16,51,25.20
2018,05,23,16,52,25.20
2018,05,23,16,53,25.20
2018,05,23,16,54,25.30
2018,05,23,16,55,25.30
2018,05,23,16,56,25.20
2018,05,23,16,57,25.20
2018,05,23,16,58,25.00
2018,05,23,16,59,24.90
2018,05,23,17,00,24.80
2018,05,23,17,01,24.70
2018,05,23,17,02,24.70
2018,05,23,17,03,24.80
2018,05,23,17,04,24.90
2018,05,23,17,05,24.90
2018,05,23,17,06,24.90
2018,05,23,17,07,25.00
2018,05,23,17,08,25.10
2018,05,23,17,09,25.30
2018,05,23,17,10,25.40
2018,05,23,17,11,25.50
2018,05,23,17,12,25.60
2018,05,23,17,13,25.50
2018,05,23,17,14,25.40
2018,05,23,17,15,25.30
2018,05,23,17,16,25.30
2018,05,23,17,17,25.30
2018,05,23,17,18,25.20
2018,05,23,17,19,25.10